sat.trackr.live / text

‹ back to catalog

GALAXY 32 (G-32)

NORAD 54244 · 2022-153B

PAYLOAD ACTIVE UNKNOWN

§ Identity

Operator
Country
ITSO
Launch date
2022-11-12
Launch site
AFETR
Launch vehicle
Mass (kg)
RCS (m²)

Purposes: comms

External: N2YO · Heavens-Above · Gunter

§ Orbital elements

Epoch: 2026-05-25T01:56:38.627232Z

Period
1,436.10 min
Inclination
0.0090°
Eccentricity
0.0002507
Mean motion
1.00271557 rev/d
Perigee alt
35,776.1 km
Apogee alt
35,797.2 km
Semi-major
42,164.8 km
B*
0.0000e+0
RAAN
321.8765°
Arg perigee
66.2969°
Mean anomaly
152.6646°
Rev number
1,291

§ Raw data

GALAXY 32 (G-32)1 54244U 22153B   26145.08100263 -.00000177  00000+0  00000+0 0  99942 54244   0.0090 321.8765 0002507  66.2969 152.6646  1.00271557 12915

JSON: /api/v1/satellites/54244 · /tle

For live sub-satellite position, see the globe view (requires WebGL).

§ Visibility from observer

Set your observer location to see the next 7 days of passes ≥ 10°. The values pass through the URL so the page stays shareable.

No JS? Fill the form by hand. The geolocation button needs JavaScript.